Location: Dehesa de la Cepeda
(40.6574°N, 4.3013°W)
Time: 10:37:30
(UTC+00:00)

Transit 2A Rocket - Pass Details

Date: 05 August 2021
Orbit: 586 x 917 km, 66.7° (Epoch: 24 September)

Event Time Altitude Azimuth Distance (km) Brightness Sun altitude
Rises 14:21:51 0° 246° (WSW) 2,861 8.5 55.0°
Reaches altitude 10° 14:24:28 10° 262° (W) 1,997 7.9 54.6°
Maximum altitude 14:27:59 22° 314° (NW) 1,421 6.8 54.1°
Drops below altitude 10° 14:31:45 10° 5° (N) 2,142 7.2 53.4°
Sets 14:34:40 0° 20° (NNE) 3,129 7.9 53.0°
